Weather History for KVER - November, 2011

Change the Weather History Date:

Friday, November 25, 2011

  Actual Average Record
Temperature  
Mean Temperature 54 °F -  
Max Temperature 66 °F 47 °F 69 °F (1966)
Min Temperature 42 °F 28 °F 6 °F (1950)
Degree Days  
Heating Degree Days 11    
Growing Degree Days 4 (Base 50)    
Moisture  
Dew Point 42 °F    
Average Humidity 68    
Maximum Humidity 90    
Minimum Humidity 43    
Precipitation  
Precipitation 0.00 in - - ()
Sea Level Pressure  
Sea Level Pressure 29.93 in    
Wind  
Wind Speed 11 mph (South)    
Max Wind Speed 16 mph    
Max Gust Speed 25 mph    
Visibility 10 miles    
Events      
Averages and records for this station are not official NWS values.
T = Trace of Precipitation, MM = Missing Value Source: NWS Daily Summary

Daily Weather History Graph

Daily Weather History Graph

Search for Another Location

Airport or City:

Trip Planner

Search our weather history database for the weather conditions in past years. The results will help you decide how hot, cold, wet, or windy it might be!

Date:

Astronomy

Nov. 25, 2011 Rise Set
Actual Time 7:04 AM CST 4:50 PM CST
Civil Twilight 6:34 AM CST 5:20 PM CST
Nautical Twilight 6:02 AM CST 5:52 PM CST
Astronomical Twilight 5:30 AM CST 6:24 PM CST
Moon 7:32 AM CST (11/25) 5:19 PM CST (11/25)
Length of Visible Light 10h 45m
Length of Day
9h 46m
New Moon, 0% of the Moon is Illuminated
Nov 25
New Moon
Dec 2
First Quarter
Dec 10
Full
Dec 17
Last Quarter
Dec 24
New

Hourly Weather History & Observations

Time (CST) Temp. Windchill Dew Point Humidity Pressure Visibility Wind Dir Wind Speed Gust Speed Precip Events Conditions
12:15 AM 46.8 °F - 42.1 °F 84% 30.05 in 10.0 mi South 10.4 mph - N/A   Clear
12:35 AM 46.0 °F 41.0 °F 42.1 °F 86% 30.05 in 10.0 mi SSE 10.4 mph - N/A   Clear
12:55 AM 45.5 °F 39.9 °F 41.9 °F 87% 30.04 in 10.0 mi South 11.5 mph - N/A   Clear
1:35 AM 45.3 °F 40.6 °F 41.7 °F 87% 30.03 in 10.0 mi SSE 9.2 mph - N/A   Clear
1:55 AM 44.6 °F 40.2 °F 41.5 °F 89% 30.04 in 10.0 mi South 8.1 mph - N/A   Clear
2:15 AM 44.6 °F 39.2 °F 41.5 °F 89% 30.04 in 10.0 mi SSE 10.4 mph - N/A   Clear
2:35 AM 44.2 °F 39.7 °F 41.2 °F 89% 30.04 in 10.0 mi South 8.1 mph - N/A   Clear
2:55 AM 43.5 °F 37.9 °F 40.8 °F 90% 30.04 in 10.0 mi South 10.4 mph - N/A   Clear
3:15 AM 43.7 °F 38.6 °F 41.0 °F 90% 30.03 in 10.0 mi SSE 9.2 mph - N/A   Clear
3:55 AM 43.7 °F 38.1 °F 40.6 °F 89% 30.01 in 10.0 mi SSE 10.4 mph - N/A   Clear
4:15 AM 43.2 °F 37.4 °F 40.5 °F 90% 30.01 in 10.0 mi SSE 10.4 mph - N/A   Clear
4:35 AM 43.2 °F 37.9 °F 40.3 °F 90% 30.01 in 10.0 mi SSE 9.2 mph - N/A   Clear
4:55 AM 43.0 °F 37.7 °F 39.9 °F 89% 30.00 in 10.0 mi SSE 9.2 mph - N/A   Clear
5:15 AM 42.6 °F 36.8 °F 39.7 °F 90% 30.00 in 10.0 mi SSE 10.4 mph - N/A   Clear
5:35 AM 42.8 °F 37.0 °F 39.7 °F 89% 30.00 in 10.0 mi SSE 10.4 mph - N/A   Clear
5:55 AM 43.3 °F 38.1 °F 39.9 °F 88% 30.01 in 10.0 mi South 9.2 mph - N/A   Clear
6:15 AM 43.5 °F 37.9 °F 39.9 °F 87% 30.00 in 10.0 mi SSE 10.4 mph - N/A   Clear
6:35 AM 43.7 °F 38.1 °F 39.9 °F 87% 30.00 in 10.0 mi SSE 10.4 mph - N/A   Clear
6:55 AM 43.5 °F 37.9 °F 40.1 °F 88% 30.00 in 10.0 mi SSE 10.4 mph - N/A   Clear
7:15 AM 43.7 °F 37.7 °F 40.1 °F 87% 30.00 in 10.0 mi SSE 11.5 mph - N/A   Clear
7:35 AM 44.2 °F 37.3 °F 40.5 °F 87% 30.00 in 10.0 mi South 15.0 mph - N/A   Clear
7:55 AM 45.3 °F 38.4 °F 41.0 °F 85% 30.00 in 10.0 mi South 16.1 mph - N/A   Clear
8:15 AM 46.4 °F 40.1 °F 41.2 °F 82% 30.00 in 10.0 mi South 15.0 mph 18.4 mph N/A   Clear
8:35 AM 47.8 °F - 41.4 °F 78% 29.99 in 10.0 mi South 11.5 mph - N/A   Clear
8:55 AM 49.6 °F - 42.3 °F 76% 29.98 in 10.0 mi South 15.0 mph 21.9 mph N/A   Clear
9:15 AM 51.1 °F - 42.4 °F 72% 29.98 in 10.0 mi South 12.7 mph 18.4 mph N/A   Clear
9:35 AM 52.5 °F - 43.2 °F 70% 29.97 in 10.0 mi South 12.7 mph 21.9 mph N/A   Clear
9:55 AM 52.5 °F - 43.2 °F 70% 29.97 in 10.0 mi South 13.8 mph 18.4 mph N/A   Clear
10:15 AM 54.0 °F - 44.2 °F 70% 29.96 in 10.0 mi South 15.0 mph 20.7 mph N/A   Clear
10:35 AM 56.1 °F - 44.8 °F 66% 29.96 in 10.0 mi South 16.1 mph 19.6 mph N/A   Clear
10:55 AM 57.4 °F - 45.1 °F 64% 29.95 in 10.0 mi SSW 13.8 mph 23.0 mph N/A   Clear
11:35 AM 59.4 °F - 45.7 °F 61% 29.91 in 10.0 mi South 13.8 mph 21.9 mph N/A   Clear
12:15 PM 62.6 °F - 46.2 °F 55% 29.89 in 10.0 mi South 12.7 mph 20.7 mph N/A   Clear
12:35 PM 64.2 °F - 46.2 °F 52% 29.88 in 10.0 mi South 11.5 mph 20.7 mph N/A   Clear
12:55 PM 64.6 °F - 46.2 °F 51% 29.87 in 10.0 mi South 15.0 mph 23.0 mph N/A   Clear
1:15 PM 64.6 °F - 46.2 °F 51% 29.86 in 10.0 mi South 13.8 mph 19.6 mph N/A   Clear
1:35 PM 65.1 °F - 46.2 °F 50% 29.85 in 10.0 mi South 12.7 mph 21.9 mph N/A   Clear
1:55 PM 66.0 °F - 46.2 °F 49% 29.85 in 10.0 mi South 16.1 mph 23.0 mph N/A   Clear
2:15 PM 66.4 °F - 45.9 °F 48% 29.85 in 10.0 mi South 10.4 mph 25.3 mph N/A   Clear
2:35 PM 66.4 °F - 45.3 °F 47% 29.85 in 10.0 mi South 12.7 mph 19.6 mph N/A   Clear
2:55 PM 65.7 °F - 44.4 °F 46% 29.84 in 10.0 mi South 11.5 mph 21.9 mph N/A   Clear
3:15 PM 65.3 °F - 44.2 °F 46% 29.84 in 10.0 mi South 9.2 mph - N/A   Clear
3:35 PM 64.9 °F - 43.3 °F 45% 29.84 in 10.0 mi SSW 13.8 mph 21.9 mph N/A   Clear
3:55 PM 64.2 °F - 43.0 °F 46% 29.83 in 10.0 mi South 9.2 mph 17.3 mph N/A   Clear
4:15 PM 63.9 °F - 41.7 °F 44% 29.83 in 10.0 mi South 16.1 mph 23.0 mph N/A   Clear
4:35 PM 63.3 °F - 40.6 °F 43% 29.84 in 10.0 mi South 11.5 mph 18.4 mph N/A   Clear
4:55 PM 62.1 °F - 40.8 °F 46% 29.83 in 10.0 mi South 12.7 mph - N/A   Clear
5:15 PM 61.5 °F - 40.8 °F 47% 29.83 in 10.0 mi South 11.5 mph - N/A   Clear
5:35 PM 60.6 °F - 40.6 °F 48% 29.83 in 10.0 mi South 13.8 mph 19.6 mph N/A   Clear
5:55 PM 60.8 °F - 40.5 °F 47% 29.83 in 10.0 mi South 13.8 mph 23.0 mph N/A   Clear
6:15 PM 59.4 °F - 40.6 °F 50% 29.84 in 10.0 mi South 13.8 mph - N/A   Clear
6:35 PM 58.8 °F - 40.8 °F 51% 29.84 in 10.0 mi South 10.4 mph - N/A   Clear
6:55 PM 58.3 °F - 41.2 °F 53% 29.84 in 10.0 mi South 10.4 mph - N/A   Clear
7:15 PM 58.3 °F - 41.4 °F 53% 29.84 in 10.0 mi South 12.7 mph 19.6 mph N/A   Clear
7:35 PM 57.7 °F - 41.4 °F 54% 29.84 in 10.0 mi South 10.4 mph - N/A   Clear
7:55 PM 58.1 °F - 41.2 °F 53% 29.85 in 10.0 mi South 11.5 mph 17.3 mph N/A   Clear
8:15 PM 58.1 °F - 41.0 °F 53% 29.85 in 10.0 mi South 11.5 mph 17.3 mph N/A   Clear
8:35 PM 57.7 °F - 41.2 °F 54% 29.86 in 10.0 mi South 12.7 mph - N/A   Clear
8:55 PM 57.2 °F - 41.2 °F 55% 29.87 in 10.0 mi South 10.4 mph - N/A   Clear
9:15 PM 56.8 °F - 41.5 °F 57% 29.87 in 10.0 mi South 11.5 mph 16.1 mph N/A   Mostly Cloudy
9:35 PM 57.6 °F - 41.7 °F 56% 29.87 in 10.0 mi South 11.5 mph 16.1 mph N/A   Overcast
9:55 PM 58.1 °F - 42.1 °F 55% 29.86 in 10.0 mi South 10.4 mph 19.6 mph N/A   Overcast
10:15 PM 57.7 °F - 42.4 °F 57% 29.86 in 10.0 mi South 16.1 mph 21.9 mph N/A   Overcast
10:35 PM 57.4 °F - 43.0 °F 59% 29.86 in 10.0 mi South 13.8 mph 17.3 mph N/A   Overcast
10:55 PM 57.0 °F - 43.5 °F 61% 29.85 in 10.0 mi South 11.5 mph 19.6 mph N/A   Mostly Cloudy
11:15 PM 56.1 °F - 43.9 °F 64% 29.85 in 10.0 mi South 11.5 mph - N/A   Mostly Cloudy
11:35 PM 56.3 °F - 44.4 °F 64% 29.85 in 10.0 mi South 11.5 mph - N/A   Overcast
11:55 PM 56.3 °F - 44.6 °F 65% 29.85 in 10.0 mi South 10.4 mph 16.1 mph N/A   Overcast